| time (UTC) | temp F | wind direction | speed knots | gust knots | rain 1hr in | rain 24hr in | rain mn in | humidity % | barometer mb |
| 20260504202146 | 58 | 231 | 5.2 | 10.4 | 0.00 | 0.00 | 0.00 | 85 | 1011.1 |
| 20260504201646 | 58 | 198 | 5.2 | 8.7 | 0.00 | 0.00 | 0.00 | 85 | 1011.1 |
| 20260504201149 | 58 | 190 | 3.5 | 7.8 | 0.00 | 0.00 | 0.00 | 85 | 1011.2 |
| 20260504200646 | 58 | 217 | 2.6 | 11.3 | 0.00 | 0.00 | 0.00 | 85 | 1011.2 |
| 20260504200146 | 57 | 182 | 5.2 | 11.3 | 0.00 | 0.00 | 0.00 | 86 | 1011.2 |
| 20260504195647 | 57 | 187 | 4.3 | 11.3 | 0.00 | 0.00 | 0.00 | 85 | 1011.1 |
| 20260504195147 | 57 | 217 | 4.3 | 9.6 | 0.00 | 0.00 | 0.00 | 85 | 1011.1 |
| 20260504194647 | 57 | 218 | 3.5 | 12.2 | 0.00 | 0.00 | 0.00 | 85 | 1011.1 |
| 20260504194148 | 57 | 197 | 7.0 | 12.2 | 0.00 | 0.00 | 0.00 | 85 | 1011.1 |
| 20260504193646 | 58 | 200 | 4.3 | 12.2 | 0.00 | 0.00 | 0.00 | 85 | 1011.1 |
| 20260504193147 | 58 | 235 | 4.3 | 9.6 | 0.00 | 0.00 | 0.00 | 85 | 1011.0 |
| 20260504192146 | 58 | 249 | 3.5 | 11.3 | 0.00 | 0.00 | 0.00 | 86 | 1011.0 |
| 20260504191646 | 58 | 235 | 3.5 | 11.3 | 0.00 | 0.00 | 0.00 | 86 | 1010.9 |
| 20260504191148 | 58 | 246 | 5.2 | 8.7 | 0.00 | 0.00 | 0.00 | 86 | 1011.0 |
| 20260504190646 | 57 | 215 | 4.3 | 8.7 | 0.00 | 0.00 | 0.00 | 86 | 1010.9 |
| 20260504190146 | 57 | 239 | 3.5 | 12.2 | 0.00 | 0.00 | 0.00 | 87 | 1011.0 |
| 20260504185647 | 57 | 182 | 4.3 | 12.2 | 0.00 | 0.00 | 0.00 | 86 | 1010.9 |
| 20260504185146 | 57 | 189 | 7.0 | 12.2 | 0.00 | 0.00 | 0.00 | 87 | 1010.9 |
| 20260504184646 | 57 | 180 | 6.1 | 13.9 | 0.00 | 0.00 | 0.00 | 87 | 1010.9 |
| 20260504184148 | 57 | 197 | 6.1 | 13.9 | 0.00 | 0.00 | 0.00 | 87 | 1011.0 |
| 20260504183646 | 57 | 201 | 6.1 | 13.9 | 0.00 | 0.00 | 0.00 | 87 | 1010.9 |
| 20260504183146 | 57 | 179 | 6.1 | 13.0 | 0.00 | 0.00 | 0.00 | 87 | 1010.9 |
| 20260504182647 | 57 | 165 | 4.3 | 13.0 | 0.00 | 0.00 | 0.00 | 87 | 1010.8 |
| 20260504182146 | 57 | 180 | 5.2 | 12.2 | 0.00 | 0.00 | 0.00 | 87 | 1010.7 |
| 20260504181646 | 57 | 176 | 5.2 | 12.2 | 0.00 | 0.00 | 0.00 | 87 | 1010.7 |
| 20260504181148 | 56 | 198 | 6.1 | 12.2 | 0.00 | 0.00 | 0.00 | 87 | 1010.7 |
| 20260504180646 | 56 | 201 | 5.2 | 12.2 | 0.00 | 0.00 | 0.00 | 87 | 1010.7 |
| 20260504180146 | 57 | 186 | 6.1 | 11.3 | 0.00 | 0.00 | 0.00 | 87 | 1010.6 |
| 20260504175647 | 57 | 182 | 5.2 | 11.3 | 0.00 | 0.00 | 0.00 | 87 | 1010.6 |
| 20260504175146 | 57 | 196 | 2.6 | 11.3 | 0.00 | 0.00 | 0.00 | 88 | 1010.5 |
| 20260504174646 | 56 | 189 | 4.3 | 11.3 | 0.00 | 0.00 | 0.00 | 88 | 1010.5 |
| 20260504174149 | 56 | 189 | 4.3 | 8.7 | 0.00 | 0.00 | 0.00 | 88 | 1010.5 |
| 20260504173646 | 56 | 225 | 4.3 | 8.7 | 0.00 | 0.00 | 0.00 | 88 | 1010.5 |
| 20260504173146 | 56 | 193 | 5.2 | 11.3 | 0.00 | 0.00 | 0.00 | 88 | 1010.5 |
| 20260504172647 | 56 | 217 | 2.6 | 11.3 | 0.00 | 0.00 | 0.00 | 88 | 1010.5 |
| 20260504171645 | 56 | 194 | 2.6 | 10.4 | 0.00 | 0.00 | 0.00 | 88 | 1010.5 |
| 20260504170646 | 56 | 196 | 2.6 | 8.7 | 0.00 | 0.00 | 0.00 | 88 | 1010.4 |
| 20260504160147 | 56 | 196 | 3.5 | 5.2 | 0.00 | 0.00 | 0.00 | 87 | 1010.1 |
| 20260504150646 | 56 | 196 | 0.9 | 2.6 | 0.00 | 0.00 | 0.00 | 87 | 1010.0 |
| 20260504150147 | 56 | 187 | 0.9 | 5.2 | 0.00 | 0.00 | 0.00 | 87 | 1009.9 |
| 20260504141148 | 55 | 100 | 1.7 | 7.0 | 0.00 | 0.00 | 0.00 | 87 | 1009.4 |
| 20260504140646 | 55 | 168 | 2.6 | 7.0 | 0.00 | 0.00 | 0.00 | 87 | 1009.3 |
| 20260504140146 | 55 | 145 | 4.3 | 6.1 | 0.00 | 0.00 | 0.00 | 87 | 1009.2 |
| 20260504130146 | 54 | 179 | 1.7 | 9.6 | 0.00 | 0.00 | 0.00 | 87 | 1008.9 |
| 20260504120146 | 55 | 175 | 8.7 | 8.7 | 0.00 | 0.00 | 0.00 | 87 | 1008.9 |
| 20260504110646 | 55 | 190 | 1.7 | 7.8 | 0.00 | 0.00 | 0.00 | 87 | 1008.8 |
| 20260504110146 | 55 | 30 | 4.3 | 7.0 | 0.00 | 0.00 | 0.00 | 87 | 1008.9 |
| 20260504100146 | 55 | 158 | 1.7 | 8.7 | 0.00 | 0.00 | 0.00 | 88 | 1008.6 |
| 20260504081646 | 55 | 200 | 3.5 | 7.8 | 0.00 | 0.00 | 0.00 | 87 | 1008.7 |
| 20260504081148 | 55 | 239 | 3.5 | 7.0 | 0.00 | 0.00 | 0.00 | 86 | 1008.7 |
| 20260504080742 | 55 | 175 | 2.6 | 7.0 | 0.00 | 0.00 | 0.00 | 87 | 1008.7 |
| 20260504080646 | 55 | 175 | 2.6 | 7.0 | 0.00 | 0.00 | 0.00 | 87 | 1008.7 |
| 20260504080147 | 55 | 193 | 1.7 | 7.8 | 0.00 | 0.00 | 0.00 | 86 | 1008.6 |
| 20260504070146 | 55 | 177 | 2.6 | 8.7 | 0.00 | 0.00 | 0.00 | 86 | 1008.4 |
| 20260504060146 | 56 | 203 | 6.1 | 9.6 | 0.00 | 0.00 | 0.00 | 86 | 1008.2 |
| 20260504050646 | 55 | 179 | 3.5 | 11.3 | 0.00 | 0.00 | 0.00 | 85 | 1008.1 |
| 20260504050147 | 55 | 162 | 7.0 | 11.3 | 0.00 | 0.00 | 0.00 | 85 | 1008.0 |
| 20260504045647 | 55 | 219 | 3.5 | 11.3 | 0.00 | 0.00 | 0.00 | 85 | 1008.0 |
| 20260504045146 | 55 | 212 | 5.2 | 8.7 | 0.00 | 0.00 | 0.00 | 85 | 1008.0 |
| 20260504044646 | 55 | 204 | 3.5 | 8.7 | 0.00 | 0.00 | 0.00 | 85 | 1007.8 |
| 20260504044148 | 55 | 196 | 4.3 | 11.3 | 0.00 | 0.00 | 0.00 | 85 | 1007.9 |
| 20260504043646 | 55 | 205 | 6.1 | 11.3 | 0.00 | 0.00 | 0.00 | 85 | 1007.8 |
| 20260504043146 | 55 | 184 | 4.3 | 11.3 | 0.00 | 0.00 | 0.00 | 85 | 1007.8 |
| 20260504042647 | 55 | 196 | 7.8 | 10.4 | 0.00 | 0.00 | 0.00 | 84 | 1007.6 |
| 20260504042146 | 55 | 214 | 5.2 | 10.4 | 0.00 | 0.00 | 0.00 | 84 | 1007.5 |
| 20260504041148 | 55 | 187 | 2.6 | 9.6 | 0.00 | 0.00 | 0.00 | 84 | 1007.3 |
| 20260504040646 | 55 | 173 | 5.2 | 9.6 | 0.00 | 0.00 | 0.00 | 84 | 1007.1 |
| 20260504040147 | 55 | 166 | 5.2 | 13.9 | 0.00 | 0.00 | 0.00 | 84 | 1007.1 |
| 20260504035647 | 55 | 187 | 5.2 | 13.9 | 0.00 | 0.00 | 0.00 | 84 | 1007.0 |
| 20260504034646 | 55 | 190 | 7.8 | 13.9 | 0.00 | 0.00 | 0.00 | 84 | 1006.9 |
| 20260504034148 | 55 | 194 | 6.1 | 10.4 | 0.00 | 0.00 | 0.00 | 83 | 1006.9 |
| 20260504033646 | 56 | 184 | 4.3 | 10.4 | 0.00 | 0.00 | 0.00 | 83 | 1006.9 |
| 20260504033145 | 56 | 140 | 4.3 | 12.2 | 0.00 | 0.00 | 0.00 | 83 | 1006.9 |
| 20260504032647 | 56 | 154 | 2.6 | 12.2 | 0.00 | 0.00 | 0.00 | 82 | 1006.7 |
| 20260504032146 | 56 | 191 | 4.3 | 12.2 | 0.00 | 0.00 | 0.00 | 82 | 1006.7 |
| 20260504031646 | 56 | 254 | 4.3 | 9.6 | 0.00 | 0.00 | 0.00 | 82 | 1006.6 |
| 20260504031145 | 56 | 208 | 5.2 | 7.8 | 0.00 | 0.00 | 0.00 | 82 | 1006.6 |
| 20260504030646 | 56 | 238 | 2.6 | 7.8 | 0.00 | 0.00 | 0.00 | 81 | 1006.5 |
| 20260504030147 | 56 | 242 | 3.5 | 7.8 | 0.00 | 0.00 | 0.00 | 81 | 1006.4 |
| 20260504025647 | 56 | 228 | 2.6 | 7.0 | 0.00 | 0.00 | 0.00 | 81 | 1006.4 |
| 20260504025146 | 56 | 169 | 3.5 | 6.1 | 0.00 | 0.00 | 0.00 | 81 | 1006.3 |
| 20260504024646 | 57 | 177 | 3.5 | 9.6 | 0.00 | 0.00 | 0.00 | 81 | 1006.2 |
| 20260504024148 | 57 | 225 | 4.3 | 9.6 | 0.00 | 0.00 | 0.00 | 81 | 1006.2 |
| 20260504023646 | 57 | 190 | 4.3 | 9.6 | 0.00 | 0.00 | 0.00 | 81 | 1006.1 |
| 20260504023146 | 57 | 191 | 5.2 | 7.0 | 0.00 | 0.00 | 0.00 | 81 | 1006.1 |
| 20260504022645 | 57 | 156 | 4.3 | 7.0 | 0.00 | 0.00 | 0.00 | 80 | 1006.1 |
| 20260504022144 | 57 | 221 | 3.5 | 7.0 | 0.00 | 0.00 | 0.00 | 81 | 1006.0 |
| 20260504021645 | 57 | 208 | 2.6 | 7.0 | 0.00 | 0.00 | 0.00 | 81 | 1006.0 |
| 20260504021145 | 57 | 253 | 2.6 | 10.4 | 0.00 | 0.00 | 0.00 | 81 | 1006.0 |
| 20260504020645 | 57 | 179 | 1.7 | 10.4 | 0.00 | 0.00 | 0.00 | 81 | 1005.9 |
| 20260504020146 | 57 | 204 | 1.7 | 10.4 | 0.00 | 0.00 | 0.00 | 80 | 1005.9 |
| 20260504015645 | 57 | 191 | 5.2 | 8.7 | 0.00 | 0.00 | 0.00 | 80 | 1005.9 |
| 20260504014645 | 57 | 231 | 3.5 | 8.7 | 0.00 | 0.00 | 0.00 | 79 | 1005.8 |
| 20260504014145 | 58 | 189 | 1.7 | 8.7 | 0.00 | 0.00 | 0.00 | 79 | 1005.7 |
| 20260504013644 | 58 | 183 | 3.5 | 8.7 | 0.00 | 0.00 | 0.00 | 79 | 1005.8 |
| 20260504013145 | 58 | 172 | 4.3 | 8.7 | 0.00 | 0.00 | 0.00 | 78 | 1005.7 |
| 20260504012645 | 59 | 187 | 1.7 | 8.7 | 0.00 | 0.00 | 0.00 | 78 | 1005.7 |
| 20260504012145 | 59 | 194 | 3.5 | 7.0 | 0.00 | 0.00 | 0.00 | 77 | 1005.7 |
| 20260504011645 | 60 | 253 | 2.6 | 7.0 | 0.00 | 0.00 | 0.00 | 77 | 1005.7 |
| 20260504011145 | 60 | 232 | 3.5 | 9.6 | 0.00 | 0.00 | 0.00 | 77 | 1005.7 |
| 20260504010645 | 61 | 189 | 1.7 | 9.6 | 0.00 | 0.00 | 0.00 | 77 | 1005.6 |
| 20260504010146 | 61 | 207 | 4.3 | 9.6 | 0.00 | 0.00 | 0.00 | 76 | 1005.6 |
| 20260504005647 | 61 | 243 | 5.2 | 7.8 | 0.00 | 0.00 | 0.00 | 76 | 1005.6 |
| 20260504005144 | 62 | 215 | 3.5 | 7.8 | 0.00 | 0.00 | 0.00 | 76 | 1005.6 |
| 20260504004645 | 62 | 309 | 2.6 | 5.2 | 0.00 | 0.00 | 0.00 | 76 | 1005.6 |
| 20260504004148 | 62 | 253 | 0.9 | 3.5 | 0.00 | 0.00 | 0.00 | 76 | 1005.6 |
| 20260504003144 | 62 | 236 | 3.5 | 7.8 | 0.00 | 0.00 | 0.00 | 76 | 1005.5 |
| 20260504002645 | 62 | 235 | 1.7 | 7.8 | 0.00 | 0.00 | 0.00 | 75 | 1005.4 |
| 20260504002144 | 63 | 201 | 2.6 | 7.8 | 0.00 | 0.00 | 0.00 | 75 | 1005.4 |
| 20260504001644 | 63 | 169 | 1.7 | 7.8 | 0.00 | 0.00 | 0.00 | 74 | 1005.3 |
| 20260504001149 | 64 | 257 | 2.6 | 6.1 | 0.00 | 0.00 | 0.00 | 74 | 1005.3 |
| 20260504000644 | 64 | 246 | 1.7 | 6.1 | 0.00 | 0.00 | 0.00 | 74 | 1005.2 |
| 20260504000146 | 64 | 254 | 3.5 | 5.2 | 0.00 | 0.00 | 0.00 | 74 | 1005.2 |
| 20260503235645 | 64 | 268 | 1.7 | 3.5 | 0.00 | 0.00 | 0.00 | 74 | 1005.2 |
| 20260503235144 | 64 | 263 | 1.7 | 5.2 | 0.00 | 0.00 | 0.00 | 74 | 1005.1 |
| 20260503234645 | 65 | 239 | 1.7 | 5.2 | 0.00 | 0.00 | 0.00 | 73 | 1005.1 |
| 20260503234145 | 65 | 229 | 3.5 | 5.2 | 0.00 | 0.00 | 0.00 | 73 | 1005.1 |
| 20260503233644 | 65 | 271 | 2.6 | 5.2 | 0.00 | 0.00 | 0.00 | 73 | 1005.0 |
| 20260503233144 | 65 | 268 | 1.7 | 5.2 | 0.00 | 0.00 | 0.00 | 72 | 1005.0 |
| 20260503232144 | 66 | 231 | 1.7 | 4.3 | 0.00 | 0.00 | 0.00 | 70 | 1005.0 |
| 20260503231644 | 67 | 270 | 0.9 | 4.3 | 0.00 | 0.00 | 0.00 | 71 | 1005.0 |
| 20260503230644 | 67 | 239 | 2.6 | 3.5 | 0.00 | 0.00 | 0.00 | 70 | 1005.0 |
| 20260503230146 | 67 | 253 | 2.6 | 4.3 | 0.00 | 0.00 | 0.00 | 70 | 1005.1 |
| 20260503225645 | 67 | 246 | 2.6 | 4.3 | 0.00 | 0.00 | 0.00 | 69 | 1005.3 |
| 20260503224645 | 68 | 240 | 2.6 | 3.5 | 0.00 | 0.00 | 0.00 | 69 | 1005.4 |
| 20260503224145 | 68 | 243 | 2.6 | 3.5 | 0.00 | 0.00 | 0.00 | 70 | 1005.5 |
| 20260503223646 | 68 | 224 | 1.7 | 3.5 | 0.00 | 0.00 | 0.00 | 69 | 1005.5 |
| 20260503223144 | 68 | 282 | 1.7 | 4.3 | 0.00 | 0.00 | 0.00 | 68 | 1005.6 |
| 20260503222647 | 68 | 273 | 2.6 | 4.3 | 0.00 | 0.00 | 0.00 | 68 | 1005.7 |
| 20260503222144 | 68 | 249 | 1.7 | 4.3 | 0.00 | 0.00 | 0.00 | 67 | 1005.6 |
| 20260503221644 | 68 | 231 | 1.7 | 3.5 | 0.00 | 0.00 | 0.00 | 69 | 1005.7 |
| 20260503221148 | 68 | 218 | 1.7 | 3.5 | 0.00 | 0.00 | 0.00 | 69 | 1005.8 |
| 20260503220645 | 68 | 254 | 2.6 | 3.5 | 0.00 | 0.00 | 0.00 | 70 | 1005.9 |
| 20260503220147 | 68 | 247 | 1.7 | 3.5 | 0.00 | 0.00 | 0.00 | 69 | 1005.9 |
| 20260503215145 | 68 | 224 | 2.6 | 5.2 | 0.00 | 0.00 | 0.00 | 69 | 1006.0 |
| 20260503214145 | 68 | 256 | 2.6 | 5.2 | 0.00 | 0.00 | 0.00 | 69 | 1006.1 |
| 20260503213645 | 68 | 247 | 2.6 | 4.3 | 0.00 | 0.00 | 0.00 | 68 | 1006.2 |
| 20260503213144 | 69 | 233 | 2.6 | 3.5 | 0.00 | 0.00 | 0.00 | 68 | 1006.1 |
| 20260503212646 | 69 | 238 | 0.9 | 4.3 | 0.00 | 0.00 | 0.00 | 68 | 1006.2 |
| 20260503212145 | 69 | 246 | 1.7 | 4.3 | 0.00 | 0.00 | 0.00 | 69 | 1006.2 |
| 20260503211644 | 69 | 253 | 1.7 | 4.3 | 0.00 | 0.00 | 0.00 | 69 | 1006.2 |
| 20260503211148 | 69 | 242 | 3.5 | 3.5 | 0.00 | 0.00 | 0.00 | 70 | 1006.2 |
| 20260503210644 | 69 | 247 | 1.7 | 3.5 | 0.00 | 0.00 | 0.00 | 71 | 1006.1 |
| 20260503210147 | 68 | 278 | 1.7 | 3.5 | 0.00 | 0.00 | 0.00 | 72 | 1006.2 |
| 20260503205645 | 68 | 280 | 2.6 | 3.5 | 0.00 | 0.00 | 0.00 | 72 | 1006.2 |
| 20260503205144 | 68 | 267 | 0.9 | 3.5 | 0.00 | 0.00 | 0.00 | 70 | 1006.2 |
| 20260503204645 | 68 | 294 | 1.7 | 3.5 | 0.00 | 0.00 | 0.00 | 70 | 1006.2 |
| 20260503204145 | 68 | 280 | 2.6 | 2.6 | 0.00 | 0.00 | 0.00 | 71 | 1006.3 |
| 20260503203644 | 69 | 292 | 0.9 | 6.1 | 0.00 | 0.00 | 0.00 | 71 | 1006.3 |
| 20260503203144 | 69 | 298 | 2.6 | 6.1 | 0.00 | 0.00 | 0.00 | 69 | 1006.3 |